Home   Weather   Matthews   Past weeks
Flag for USA

Past Weather in Matthews, USA — Yesterday and Last 2 Weeks

Now
78 °F

Passing clouds.


Feels Like: 80 °F
Forecast: 91 / 75 °F
Wind: 6 mph from Southwest

Location: Charlotte / Douglas International Airport

Current Time: Jul 22, 2019 at 4:04:11 am

Latest Report: Jul 22, 2019 at 2:52 am


Visibility: 10 mi

Pressure: 29.95 "Hg

Humidity: 71%

Dew Point: 68 °F

Location of MatthewsLocation

Past Weather in Matthews — Graph

°F

Matthews Temperature Yesterday

Maximum temperature yesterday: 92 °F (at 3:52 pm)
Minimum temperature yesterday: 75 °F (at 5:52 am)
Average temperature yesterday: 84 °F

High & Low Weather Summary for the Past Weeks

 TemperatureHumidityPressure
High97 °F (Jul 19, 4:52 pm)94% (Jul 8, 5:52 am)30.15 "Hg (Jul 8, 5:52 am)
Low72 °F (Jul 14, 5:52 am)37% (Jul 15, 4:52 pm)29.80 "Hg (Jul 7, 5:52 pm)
Average82 °F70%29.99 "Hg
* Reported Jul 7 2:52 am — Jul 22 2:52 am, Matthews. Weather by CustomWeather, © 2019

Note: Actual official high and low records may vary slightly from our data, if they occured in-between our weather recording intervals... More about our weather records

Advertising

Matthews Weather History for the Previous 24 Hours

Scroll right to see more
 ConditionsComfort  
Time TempWeatherWind HumidityBarometerVisibility
2:52 am
Mon, Jul 22
78 °FPassing clouds.6 mph71%29.95 "Hg10 mi
1:52 am80 °FPassing clouds.6 mph67%29.97 "Hg10 mi
12:52 am80 °FPassing clouds.6 mph67%29.97 "Hg10 mi
11:52 pm
Sun, Jul 21
82 °FPassing clouds.7 mph63%29.97 "Hg10 mi
10:52 pm82 °FPassing clouds.7 mph67%29.98 "Hg10 mi
9:52 pm83 °FPassing clouds.8 mph65%29.97 "Hg10 mi
8:52 pm85 °FPassing clouds.6 mph61%29.96 "Hg10 mi
7:52 pm87 °FPartly sunny.7 mph57%29.95 "Hg10 mi
6:52 pm90 °FPartly sunny.8 mph52%29.94 "Hg10 mi
5:52 pm92 °FScattered clouds.10 mph49%29.95 "Hg10 mi
4:52 pm92 °FScattered clouds.13 mph47%29.96 "Hg10 mi
3:52 pm92 °FScattered clouds.12 mph47%29.96 "Hg10 mi
2:52 pm91 °FScattered clouds.14 mph49%29.98 "Hg10 mi
1:52 pm91 °FScattered clouds.13 mph50%30.00 "Hg10 mi
12:52 pm91 °FPassing clouds.12 mph49%30.01 "Hg10 mi
11:52 am90 °FPassing clouds.13 mph52%30.02 "Hg10 mi
10:52 am88 °FPassing clouds.9 mph54%30.02 "Hg10 mi
9:52 am85 °FPassing clouds.9 mph63%30.02 "Hg10 mi
8:52 am82 °FPassing clouds.8 mph74%30.03 "Hg10 mi
7:52 am79 °FPassing clouds.7 mph79%30.00 "Hg10 mi
6:52 am75 °FPassing clouds.3 mph90%29.99 "Hg10 mi
5:52 am75 °FPassing clouds.5 mph88%29.99 "Hg10 mi
4:52 am76 °FClear.No wind85%29.98 "Hg10 mi
Weather by CustomWeather, © 2019

See weather overview